FW9568 Weather Reports


Display with metric or nautical units.
time (UTC)temp
F
wind
direction
speed
MPH
gust
MPH
rain 1hr
in
rain 24hr
in
rain mn
in
humidity
%
barometer
mb
20260509094503 51 0 0.0 0.0 0.00 0.00 0.00 59 1015.4
20260509093603 51 79 0.0 2.0 0.00 0.00 0.00 58 1015.3
20260509092703 52 99 2.0 4.0 0.00 0.00 0.00 57 1015.2
20260509091803 52 96 2.0 3.0 0.00 0.00 0.00 57 1015.3
20260509091117 51 97 2.0 3.0 0.00 0.00 0.00 58 1015.4
20260509090003 51 97 2.0 4.0 0.00 0.00 0.00 58 1015.4
20260509085403 52 92 2.0 4.0 0.00 0.00 0.00 58 1015.5
20260509084503 52 84 1.0 3.0 0.00 0.00 0.00 57 1015.6
20260509083603 53 104 2.0 6.0 0.00 0.00 0.00 54 1015.6
20260509082703 54 171 1.0 4.0 0.00 0.00 0.00 54 1015.6
20260509081803 54 120 1.0 4.0 0.00 0.00 0.00 54 1015.6
20260509080903 54 107 2.0 7.0 0.00 0.00 0.00 54 1015.6
20260509080003 53 124 2.0 7.0 0.00 0.00 0.00 54 1015.7
20260509075619 53 116 2.0 5.0 0.00 0.00 0.00 54 1015.9
20260509074503 53 107 1.0 4.0 0.00 0.00 0.00 55 1016.1
20260509073603 53 115 2.0 3.0 0.00 0.00 0.00 55 1016.2
20260509072703 54 105 2.0 4.0 0.00 0.00 0.00 55 1016.3
20260509071803 54 107 2.0 3.0 0.00 0.00 0.00 55 1016.4
20260509070903 54 111 1.0 4.0 0.00 0.00 0.00 56 1016.5
20260509070003 53 102 2.0 3.0 0.00 0.00 0.00 56 1016.6
20260509065403 53 111 1.0 3.0 0.00 0.00 0.00 56 1016.7
20260509064503 53 125 1.0 2.0 0.00 0.00 0.00 57 1016.9
20260509063603 53 128 0.0 2.0 0.00 0.00 0.00 57 1016.7
20260509062703 53 129 1.0 2.0 0.00 0.00 0.00 57 1016.9
20260509061803 54 104 0.0 2.0 0.00 0.00 0.00 57 1017.0
20260509060903 54 105 0.0 2.0 0.00 0.00 0.00 57 1017.2
20260509060004 54 107 0.0 2.0 0.00 0.00 0.00 57 1017.2
20260509055403 54 107 1.0 3.0 0.00 0.00 0.00 57 1017.3
20260509054503 54 94 0.0 2.0 0.00 0.00 0.00 57 1017.4
20260509053817 54 0 0.0 0.0 0.00 0.00 0.00 57 1017.3
20260509052703 55 99 0.0 2.0 0.00 0.00 0.00 57 1017.4
20260509051803 55 112 0.0 2.0 0.00 0.00 0.00 56 1017.3
20260509050903 55 119 0.0 2.0 0.00 0.00 0.00 56 1017.5
20260509050003 56 110 0.0 3.0 0.00 0.00 0.00 54 1017.5
20260509045403 56 107 1.0 3.0 0.00 0.00 0.00 54 1017.4
20260509044503 56 105 0.0 2.0 0.00 0.00 0.00 54 1017.5
20260509043603 56 0 0.0 0.0 0.00 0.00 0.00 54 1017.6
20260509042703 56 105 0.0 1.0 0.00 0.00 0.00 53 1017.6
20260509041803 57 105 1.0 2.0 0.00 0.00 0.00 54 1017.4
20260509040903 57 125 0.0 2.0 0.00 0.00 0.00 54 1017.3
20260509040003 57 154 0.0 2.0 0.00 0.00 0.00 54 1017.3
20260509035403 57 165 0.0 2.0 0.00 0.00 0.00 54 1017.3
20260509034503 57 0 0.0 0.0 0.00 0.00 0.00 53 1017.4
20260509033603 57 164 0.0 2.0 0.00 0.00 0.00 52 1017.1
20260509032703 57 76 0.0 2.0 0.00 0.00 0.00 52 1016.9
20260509031803 58 67 0.0 1.0 0.00 0.00 0.00 52 1016.9
20260509030903 58 71 0.0 3.0 0.00 0.00 0.00 52 1016.6
20260509030218 59 80 1.0 3.0 0.00 0.00 0.00 50 1016.4
20260509025403 59 86 1.0 3.0 0.00 0.00 0.00 50 1016.3
20260509024503 60 75 1.0 4.0 0.00 0.00 0.00 49 1016.4
20260509023603 60 83 1.0 4.0 0.00 0.00 0.00 49 1015.9
20260509022919 60 94 1.0 4.0 0.00 0.00 0.00 48 1016.2
20260509021803 61 98 0.0 2.0 0.00 0.00 0.00 48 1016.0
20260509020903 62 93 1.0 2.0 0.00 0.00 0.00 48 1016.1
20260509020003 62 89 1.0 3.0 0.00 0.00 0.00 46 1015.9
20260509015403 63 78 1.0 3.0 0.00 0.00 0.00 45 1015.9
20260509014503 64 79 1.0 4.0 0.00 0.00 0.00 44 1015.6
20260509013603 64 75 1.0 4.0 0.00 0.00 0.00 43 1015.4
20260509012919 65 74 2.0 4.0 0.00 0.00 0.00 42 1015.2
20260509011803 66 88 2.0 4.0 0.00 0.00 0.00 40 1015.1
20260509010903 66 85 3.0 6.0 0.00 0.00 0.00 39 1015.0
20260509010003 67 85 3.0 7.0 0.00 0.00 0.00 38 1015.2
20260509005403 68 86 3.0 8.0 0.00 0.00 0.00 37 1015.2
20260509004503 68 82 3.0 8.0 0.00 0.00 0.00 37 1015.4
20260509003819 67 84 2.0 7.0 0.00 0.00 0.00 37 1015.0
20260509002703 67 85 2.0 5.0 0.00 0.00 0.00 37 1014.8
20260509001803 67 85 2.0 6.0 0.00 0.00 0.00 36 1015.1
20260509000903 68 79 2.0 6.0 0.00 0.00 0.00 36 1015.0
20260509000003 68 88 3.0 6.0 0.00 0.00 0.00 35 1014.8
20260508235403 69 84 2.0 6.0 0.00 0.00 0.00 34 1014.7
20260508234503 70 95 2.0 3.0 0.00 0.00 0.00 32 1014.7
20260508233603 70 98 2.0 6.0 0.00 0.00 0.00 32 1014.8
20260508232703 71 98 2.0 6.0 0.00 0.00 0.00 31 1014.8
20260508231803 72 79 3.0 7.0 0.00 0.00 0.00 30 1014.6
20260508230903 73 85 3.0 7.0 0.00 0.00 0.00 31 1014.4
20260508230003 73 73 3.0 7.0 0.00 0.00 0.00 31 1014.6
20260508225403 73 87 2.0 7.0 0.00 0.00 0.00 31 1014.6
20260508224503 73 109 2.0 7.0 0.00 0.00 0.00 32 1014.8
20260508223819 72 104 1.0 7.0 0.00 0.00 0.00 32 1014.8
20260508222703 72 154 2.0 5.0 0.00 0.00 0.00 31 1014.7
20260508221803 71 212 1.0 4.0 0.00 0.00 0.00 33 1014.8
20260508220903 72 80 2.0 4.0 0.00 0.00 0.00 32 1014.9
20260508220003 72 121 2.0 7.0 0.00 0.00 0.00 32 1015.0
20260508215403 72 109 3.0 7.0 0.00 0.00 0.00 31 1015.0
20260508214503 72 202 2.0 7.0 0.00 0.00 0.00 31 1015.2
20260508213603 72 103 2.0 5.0 0.00 0.00 0.00 32 1015.3
20260508212703 73 97 2.0 4.0 0.00 0.00 0.00 32 1015.3
20260508211803 72 187 2.0 10.0 0.00 0.00 0.00 32 1015.4
20260508210903 72 228 1.0 4.0 0.00 0.00 0.00 33 1015.4
20260508210003 72 117 2.0 7.0 0.00 0.00 0.00 32 1015.7
20260508205619 72 228 1.0 7.0 0.00 0.00 0.00 35 1015.6
20260508204503 72 106 2.0 6.0 0.00 0.00 0.00 32 1015.7
20260508203603 72 90 3.0 7.0 0.00 0.00 0.00 32 1015.8
20260508202703 73 105 2.0 5.0 0.00 0.00 0.00 34 1015.8
20260508202017 72 108 2.0 8.0 0.00 0.00 0.00 33 1015.8
20260508200903 72 136 2.0 6.0 0.00 0.00 0.00 34 1015.8
20260508200003 71 214 1.0 3.0 0.00 0.00 0.00 37 1016.0
20260508195619 71 252 1.0 3.0 0.00 0.00 0.00 36 1015.9
20260508194503 71 225 2.0 7.0 0.00 0.00 0.00 36 1016.1
20260508193603 71 138 2.0 9.0 0.00 0.00 0.00 36 1016.1
20260508192703 71 197 2.0 4.0 0.00 0.00 0.00 35 1016.1
20260508191803 71 175 2.0 5.0 0.00 0.00 0.00 36 1016.1
20260508191115 70 197 1.0 5.0 0.00 0.00 0.00 35 1016.1
20260508190003 70 120 1.0 4.0 0.00 0.00 0.00 37 1016.2
20260508185403 70 211 1.0 4.0 0.00 0.00 0.00 38 1016.4
20260508184503 69 204 2.0 5.0 0.00 0.00 0.00 39 1016.4
20260508183603 68 126 2.0 6.0 0.00 0.00 0.00 38 1016.5
20260508182703 67 255 1.0 3.0 0.00 0.00 0.00 43 1016.8
20260508181803 67 109 2.0 6.0 0.00 0.00 0.00 44 1016.9
20260508180903 66 245 2.0 4.0 0.00 0.00 0.00 42 1017.0
20260508180218 66 235 2.0 5.0 0.00 0.00 0.00 45 1016.9
20260508175618 66 236 2.0 5.0 0.00 0.00 0.00 46 1017.0
20260508174503 66 158 2.0 8.0 0.00 0.00 0.00 45 1017.2
20260508173603 65 290 2.0 4.0 0.00 0.00 0.00 46 1017.3
20260508172703 64 223 1.0 4.0 0.00 0.00 0.00 44 1017.4
20260508171803 63 256 1.0 4.0 0.00 0.00 0.00 49 1017.4
20260508170903 63 252 1.0 5.0 0.00 0.00 0.00 45 1017.5
20260508170003 63 251 1.0 5.0 0.00 0.00 0.00 49 1017.5
20260508165403 62 275 1.0 3.0 0.00 0.00 0.00 50 1017.6
20260508164717 62 279 1.0 4.0 0.00 0.00 0.00 52 1017.7
20260508163603 60 346 1.0 7.0 0.00 0.00 0.00 51 1017.5
20260508162916 60 272 1.0 3.0 0.00 0.00 0.00 57 1017.6
20260508161803 59 312 1.0 4.0 0.00 0.00 0.00 50 1017.7
20260508160903 59 289 3.0 7.0 0.00 0.00 0.00 52 1017.8
20260508160003 58 290 3.0 9.0 0.00 0.00 0.00 53 1017.8
20260508155403 58 300 2.0 5.0 0.00 0.00 0.00 54 1017.7
20260508154503 57 288 3.0 7.0 0.00 0.00 0.00 55 1017.7
20260508153816 56 291 3.0 7.0 0.00 0.00 0.00 58 1017.8
20260508152703 55 289 3.0 11.0 0.00 0.00 0.00 59 1017.9
20260508151803 54 288 4.0 11.0 0.00 0.00 0.00 58 1017.9
20260508151118 54 291 4.0 11.0 0.00 0.00 0.00 61 1017.9
20260508150217 54 291 6.0 13.0 0.00 0.00 0.00 60 1018.0
20260508145403 54 293 5.0 11.0 0.00 0.00 0.00 61 1018.0
20260508144503 53 283 7.0 13.0 0.00 0.00 0.00 62 1018.2
20260508143603 53 290 6.0 13.0 0.00 0.00 0.00 61 1018.2
20260508142703 54 288 4.0 13.0 0.00 0.00 0.00 58 1018.4
20260508141803 56 332 2.0 10.0 0.00 0.00 0.00 57 1018.3
20260508140903 56 332 2.0 10.0 0.00 0.00 0.00 56 1018.2
20260508140003 56 289 1.0 3.0 0.00 0.00 0.00 53 1017.8
20260508135403 55 276 1.0 2.0 0.00 0.00 0.00 54 1017.6
20260508134503 55 287 0.0 3.0 0.00 0.00 0.00 55 1017.2
20260508133603 53 0 0.0 0.0 0.00 0.00 0.00 60 1016.9
20260508132703 51 0 0.0 0.0 0.00 0.00 0.00 63 1016.7
20260508131803 49 0 0.0 0.0 0.00 0.00 0.00 65 1016.6
20260508130903 48 254 0.0 1.0 0.00 0.00 0.00 67 1016.7
20260508130003 47 251 0.0 2.0 0.00 0.00 0.00 70 1016.6
20260508125616 46 188 0.0 2.0 0.00 0.00 0.00 69 1016.5
20260508124715 45 188 0.0 2.0 0.00 0.00 0.00 72 1016.5
20260508123603 44 261 1.0 3.0 0.00 0.00 0.00 72 1016.4
20260508122703 44 265 1.0 4.0 0.00 0.00 0.00 72 1016.4
20260508121803 44 4 0.0 2.0 0.00 0.00 0.00 71 1016.2
20260508120903 44 327 1.0 5.0 0.00 0.00 0.00 71 1016.0
20260508120003 45 294 1.0 4.0 0.00 0.00 0.00 69 1015.9
20260508115403 45 290 1.0 4.0 0.00 0.00 0.00 69 1015.8
20260508114503 45 272 1.0 3.0 0.00 0.00 0.00 69 1015.8
20260508113603 46 308 1.0 4.0 0.00 0.00 0.00 68 1015.6
20260508112703 46 346 1.0 3.0 0.00 0.00 0.00 68 1015.4
20260508111803 46 302 0.0 2.0 0.00 0.00 0.00 67 1015.8
20260508110903 46 301 1.0 3.0 0.00 0.00 0.00 67 1015.7
20260508110003 46 288 1.0 4.0 0.00 0.00 0.00 66 1015.6
20260508105403 46 308 1.0 4.0 0.00 0.00 0.00 66 1015.6
20260508104503 46 302 1.0 3.0 0.00 0.00 0.00 67 1015.5
20260508103818 46 302 1.0 3.0 0.00 0.00 0.00 67 1015.6
20260508102703 47 278 1.0 6.0 0.00 0.00 0.00 68 1015.7
20260508102017 47 0 0.0 0.0 0.00 0.00 0.00 68 1015.6
20260508100903 47 0 0.0 0.0 0.00 0.00 0.00 67 1015.7
20260508100003 48 212 0.0 2.0 0.00 0.00 0.00 67 1015.8
20260508095403 48 169 0.0 1.0 0.00 0.00 0.00 66 1015.7